Year,Month,Day,Hour,Minute,Value (Times are PST for windspeed in km/hr)
2008,06,11,00,00,0.10
2008,06,11,00,01,0.00
2008,06,11,00,02,0.00
2008,06,11,00,03,0.00
2008,06,11,00,04,0.00
2008,06,11,00,05,0.00
2008,06,11,00,06,0.00
2008,06,11,00,07,0.00
2008,06,11,00,08,0.00
2008,06,11,00,09,0.00
2008,06,11,00,10,0.00
2008,06,11,00,11,0.00
2008,06,11,00,12,0.00
2008,06,11,01,02,8.60
2008,06,11,01,03,5.40
2008,06,11,01,04,8.50
2008,06,11,01,05,6.30
2008,06,11,01,06,4.30
2008,06,11,01,07,6.50
2008,06,11,01,08,2.70
2008,06,11,01,09,2.60
2008,06,11,01,10,8.20
2008,06,11,01,11,6.20
2008,06,11,01,12,8.40
2008,06,11,01,13,4.30
2008,06,11,01,14,5.80
2008,06,11,01,15,5.80
2008,06,11,01,16,9.70
2008,06,11,01,17,7.00
2008,06,11,01,18,4.10
2008,06,11,01,19,3.10
2008,06,11,01,20,5.20
2008,06,11,01,21,4.00
2008,06,11,01,22,7.20
2008,06,11,01,23,4.30
2008,06,11,01,24,6.30
2008,06,11,01,25,7.50
2008,06,11,01,26,4.70
2008,06,11,01,27,5.40
2008,06,11,01,28,6.90
2008,06,11,01,29,7.20
2008,06,11,01,30,3.50
2008,06,11,01,31,0.00
2008,06,11,01,32,0.50
2008,06,11,01,33,3.60
2008,06,11,01,34,5.60
2008,06,11,01,35,8.10
2008,06,11,01,36,8.10
2008,06,11,01,37,5.50
2008,06,11,01,38,2.40
2008,06,11,01,39,2.40
2008,06,11,01,40,3.10
2008,06,11,01,41,5.40
2008,06,11,01,42,4.10
2008,06,11,01,43,6.60
2008,06,11,01,44,6.90
2008,06,11,01,45,6.00
2008,06,11,01,46,5.70
2008,06,11,01,47,1.20
2008,06,11,01,48,3.10
2008,06,11,01,49,4.10
2008,06,11,01,50,2.80
2008,06,11,01,51,1.80
2008,06,11,01,52,5.50
2008,06,11,01,53,7.00
2008,06,11,01,54,5.80
2008,06,11,01,55,4.00
2008,06,11,01,56,4.70
2008,06,11,01,57,6.40
2008,06,11,01,58,10.10
2008,06,11,01,59,9.70
2008,06,11,02,00,8.00
2008,06,11,02,01,4.90
2008,06,11,02,02,8.20
2008,06,11,02,03,4.10
2008,06,11,02,04,2.50
2008,06,11,02,05,2.70
2008,06,11,02,06,7.50
2008,06,11,02,07,5.80
2008,06,11,02,08,6.40
2008,06,11,02,09,6.90
2008,06,11,02,10,6.40
2008,06,11,02,11,7.50
2008,06,11,02,12,4.10
2008,06,11,02,13,6.40
2008,06,11,02,14,6.50
2008,06,11,02,15,5.30
2008,06,11,02,16,7.10
2008,06,11,02,17,6.50
2008,06,11,02,18,9.00
2008,06,11,02,19,7.70
2008,06,11,02,20,10.50
2008,06,11,02,21,6.80
2008,06,11,02,22,2.60
2008,06,11,02,23,5.90
2008,06,11,02,24,3.70
2008,06,11,02,25,9.20
2008,06,11,02,26,7.80
2008,06,11,02,27,7.90
2008,06,11,02,28,7.00
2008,06,11,02,29,9.40
2008,06,11,02,30,7.90
2008,06,11,02,31,4.60
2008,06,11,02,32,8.80
2008,06,11,02,33,5.40
2008,06,11,02,34,8.10
2008,06,11,02,35,6.20
2008,06,11,02,36,6.30
2008,06,11,02,37,8.60
2008,06,11,02,38,7.30
2008,06,11,02,39,7.50
2008,06,11,02,40,4.70
2008,06,11,02,41,6.30
2008,06,11,02,42,5.10
2008,06,11,02,43,6.60
2008,06,11,02,44,8.60
2008,06,11,02,45,6.20
2008,06,11,02,46,4.10
2008,06,11,02,47,9.10
2008,06,11,02,48,5.30
2008,06,11,02,49,4.10
2008,06,11,02,50,3.60
2008,06,11,02,51,2.80
2008,06,11,02,52,6.60
2008,06,11,02,53,8.70
2008,06,11,02,54,5.00
2008,06,11,02,55,3.40
2008,06,11,02,56,4.40
2008,06,11,02,57,5.00
2008,06,11,02,58,5.40
2008,06,11,02,59,5.10
2008,06,11,03,00,7.60
2008,06,11,03,01,9.20
2008,06,11,03,02,6.70
2008,06,11,03,03,6.70
2008,06,11,03,04,5.70
2008,06,11,03,05,4.50
2008,06,11,03,06,4.10
2008,06,11,03,07,0.40
2008,06,11,03,08,6.80
2008,06,11,03,09,4.70
2008,06,11,03,10,5.80
2008,06,11,03,11,4.50
2008,06,11,03,12,3.60
2008,06,11,03,13,6.40
2008,06,11,03,14,5.60
2008,06,11,03,15,3.40
2008,06,11,03,16,1.00
2008,06,11,03,17,7.40
2008,06,11,03,18,4.90
2008,06,11,03,19,2.60
2008,06,11,03,20,1.00
2008,06,11,03,21,5.70
2008,06,11,03,22,7.10
2008,06,11,03,23,5.50
2008,06,11,03,24,4.40
2008,06,11,03,25,3.10
2008,06,11,03,26,2.70
2008,06,11,03,27,1.00
2008,06,11,03,28,2.60
2008,06,11,03,29,4.90
2008,06,11,03,30,5.90
2008,06,11,03,31,7.20
2008,06,11,03,32,3.40
2008,06,11,03,33,2.20
2008,06,11,03,34,3.60
2008,06,11,03,35,4.20
2008,06,11,03,36,5.40
2008,06,11,03,37,5.40
2008,06,11,03,38,4.00
2008,06,11,03,39,4.50
2008,06,11,03,40,0.10
2008,06,11,03,41,2.30
2008,06,11,03,42,3.00
2008,06,11,03,43,4.70
2008,06,11,03,44,5.60
2008,06,11,03,45,6.10
2008,06,11,03,46,4.10
2008,06,11,03,47,5.30
2008,06,11,03,48,5.70
2008,06,11,03,49,3.50
2008,06,11,03,50,4.40
2008,06,11,03,51,3.60
2008,06,11,03,52,4.90
2008,06,11,03,53,3.80
2008,06,11,03,54,1.90
2008,06,11,03,55,2.10
2008,06,11,03,56,2.00
2008,06,11,03,57,3.30
2008,06,11,03,58,4.30
2008,06,11,03,59,1.90
2008,06,11,04,00,6.00
2008,06,11,04,01,4.70
2008,06,11,04,02,4.10
2008,06,11,04,03,5.80
2008,06,11,04,04,2.40
2008,06,11,04,05,2.20
2008,06,11,04,06,1.90
2008,06,11,04,07,1.60
2008,06,11,04,08,0.30
2008,06,11,04,09,3.60
2008,06,11,04,10,2.80
2008,06,11,04,11,4.10
2008,06,11,04,12,1.10
2008,06,11,04,13,2.10
2008,06,11,04,14,0.30
2008,06,11,04,15,4.10
2008,06,11,04,16,2.20
2008,06,11,04,17,0.10
2008,06,11,04,18,2.70
2008,06,11,04,19,4.70
2008,06,11,04,20,4.70
2008,06,11,04,21,3.60
2008,06,11,04,22,4.10
2008,06,11,04,23,5.30
2008,06,11,04,24,1.60
2008,06,11,04,25,2.60
2008,06,11,04,26,3.60
2008,06,11,04,27,4.10
2008,06,11,04,28,6.30
2008,06,11,04,29,4.90
2008,06,11,04,30,1.90
2008,06,11,04,31,1.00
2008,06,11,04,32,0.20
2008,06,11,04,33,3.10
2008,06,11,04,34,0.30
2008,06,11,04,35,0.80
2008,06,11,04,36,3.70
2008,06,11,04,37,0.30
2008,06,11,04,38,1.50
2008,06,11,04,39,2.00
2008,06,11,04,40,1.70
2008,06,11,04,41,2.00
2008,06,11,04,42,3.60
2008,06,11,04,43,4.40
2008,06,11,04,44,5.80
2008,06,11,04,45,5.20
2008,06,11,04,46,6.20
2008,06,11,04,47,6.40
2008,06,11,04,48,5.30
2008,06,11,04,49,4.10
2008,06,11,04,50,4.30
2008,06,11,04,51,7.90
2008,06,11,04,52,2.50
2008,06,11,04,53,3.20
2008,06,11,04,54,5.80
2008,06,11,04,55,1.90
2008,06,11,04,56,0.70
2008,06,11,04,57,1.20
2008,06,11,04,58,2.50
2008,06,11,04,59,4.20
2008,06,11,05,00,3.60
2008,06,11,05,01,0.50
2008,06,11,05,02,0.30
2008,06,11,05,03,3.00
2008,06,11,05,04,1.90
2008,06,11,05,05,0.50
2008,06,11,05,06,0.80
2008,06,11,05,07,1.30
2008,06,11,05,08,1.90
2008,06,11,05,09,2.90
2008,06,11,05,10,2.00
2008,06,11,05,11,3.50
2008,06,11,05,12,2.50
2008,06,11,05,13,3.30
2008,06,11,05,14,2.40
2008,06,11,05,15,4.30
2008,06,11,05,16,4.70
2008,06,11,05,17,3.40
2008,06,11,05,18,1.40
2008,06,11,05,19,4.10
2008,06,11,05,20,1.30
2008,06,11,05,21,0.30
2008,06,11,05,22,0.00
2008,06,11,05,23,1.00
2008,06,11,05,24,2.30
2008,06,11,05,25,3.00
2008,06,11,05,26,0.70
2008,06,11,05,27,0.00
2008,06,11,05,28,0.00
2008,06,11,05,29,0.00
2008,06,11,05,30,0.00
2008,06,11,05,31,2.70
2008,06,11,05,32,4.30
2008,06,11,05,33,3.30
2008,06,11,05,34,3.60
2008,06,11,05,35,3.00
2008,06,11,05,36,2.30
2008,06,11,05,37,4.10
2008,06,11,05,38,2.40
2008,06,11,05,39,0.70
2008,06,11,05,40,0.80
2008,06,11,05,41,4.10
2008,06,11,05,42,3.70
2008,06,11,05,43,1.70
2008,06,11,05,44,2.90
2008,06,11,05,45,6.70
2008,06,11,05,46,7.40
2008,06,11,05,47,6.90
2008,06,11,05,48,3.10
2008,06,11,05,49,5.80
2008,06,11,05,50,3.80
2008,06,11,05,51,3.60
2008,06,11,05,52,2.90
2008,06,11,05,53,4.10
2008,06,11,05,54,4.60
2008,06,11,05,55,1.70
2008,06,11,05,56,4.70
2008,06,11,05,57,4.50
2008,06,11,05,58,6.90
2008,06,11,05,59,7.20
2008,06,11,06,00,3.80
2008,06,11,06,01,1.70
2008,06,11,06,02,2.50
2008,06,11,06,03,3.00
2008,06,11,06,04,4.50
2008,06,11,06,05,1.90
2008,06,11,06,06,5.20
2008,06,11,06,07,3.70
2008,06,11,06,08,1.90
2008,06,11,06,09,2.30
2008,06,11,06,10,0.80
2008,06,11,06,11,2.30
2008,06,11,06,12,3.60
2008,06,11,06,13,3.50
2008,06,11,06,14,0.70
2008,06,11,06,15,0.50
2008,06,11,06,16,0.00
2008,06,11,06,17,0.80
2008,06,11,06,18,0.20
2008,06,11,06,19,0.00
2008,06,11,06,20,1.50
2008,06,11,06,21,2.50
2008,06,11,06,22,0.90
2008,06,11,06,23,5.30
2008,06,11,06,24,2.80
2008,06,11,06,25,3.60
2008,06,11,06,26,3.90
2008,06,11,06,27,4.90
2008,06,11,06,28,3.50
2008,06,11,06,29,3.00
2008,06,11,06,30,7.30
2008,06,11,06,31,7.00
2008,06,11,06,32,5.00
2008,06,11,06,33,1.60
2008,06,11,06,34,4.90
2008,06,11,06,35,4.80
2008,06,11,06,36,3.60
2008,06,11,06,37,2.60
2008,06,11,06,38,1.90
2008,06,11,06,39,2.50
2008,06,11,06,40,3.10
2008,06,11,06,41,5.60
2008,06,11,06,42,2.00
2008,06,11,06,43,4.80
2008,06,11,06,44,0.90
2008,06,11,06,45,2.50
2008,06,11,06,46,2.30
2008,06,11,06,47,2.40
2008,06,11,06,48,3.50
2008,06,11,06,49,2.50
2008,06,11,06,50,4.40
2008,06,11,06,51,2.40
2008,06,11,06,52,4.70
2008,06,11,06,53,5.30
2008,06,11,06,54,6.40
2008,06,11,06,55,5.70
2008,06,11,06,56,3.40
2008,06,11,06,57,6.00
2008,06,11,06,58,3.40
2008,06,11,06,59,4.90
2008,06,11,07,00,4.00
2008,06,11,07,01,5.90
2008,06,11,07,02,2.90
2008,06,11,07,03,5.30
2008,06,11,07,04,4.20
2008,06,11,07,05,5.10
2008,06,11,07,06,4.10
2008,06,11,07,07,2.40
2008,06,11,07,08,1.40
2008,06,11,07,09,2.80
2008,06,11,07,10,1.90
2008,06,11,07,11,3.10
2008,06,11,07,12,2.90
2008,06,11,07,13,0.80
2008,06,11,07,14,2.50
2008,06,11,07,15,2.40
2008,06,11,07,16,2.70
2008,06,11,07,17,5.20
2008,06,11,07,18,5.00
2008,06,11,07,19,2.50
2008,06,11,07,20,4.10
2008,06,11,07,21,3.10
2008,06,11,07,22,2.20
2008,06,11,07,23,4.60
2008,06,11,07,24,0.80
2008,06,11,07,25,2.10
2008,06,11,07,26,0.90
2008,06,11,07,27,1.40
2008,06,11,07,28,5.90
2008,06,11,07,29,2.80
2008,06,11,07,30,3.60
2008,06,11,07,31,3.30
2008,06,11,07,32,4.90
2008,06,11,07,33,5.70
2008,06,11,07,34,3.80
2008,06,11,07,35,3.10
2008,06,11,07,36,6.80
2008,06,11,07,37,4.60
2008,06,11,07,38,2.30
2008,06,11,07,39,1.30
2008,06,11,07,40,5.30
2008,06,11,07,41,3.90
2008,06,11,07,42,1.30
2008,06,11,07,43,1.50
2008,06,11,07,44,1.70
2008,06,11,07,45,1.90
2008,06,11,07,46,2.90
2008,06,11,07,47,7.40
2008,06,11,07,48,1.40
2008,06,11,07,49,2.90
2008,06,11,07,50,3.00
2008,06,11,07,51,0.10
2008,06,11,07,52,0.00
2008,06,11,07,53,0.00
2008,06,11,07,54,0.30
2008,06,11,07,55,0.00
2008,06,11,07,56,1.40
2008,06,11,07,57,2.20
2008,06,11,07,58,0.80
2008,06,11,07,59,3.90
2008,06,11,08,00,0.60
2008,06,11,08,01,0.10
2008,06,11,08,02,0.40
2008,06,11,08,03,0.10
2008,06,11,08,04,0.20
2008,06,11,08,05,0.10
2008,06,11,08,06,0.00
2008,06,11,08,07,0.00
2008,06,11,08,08,2.50
2008,06,11,08,09,3.20
2008,06,11,08,10,2.40
2008,06,11,08,11,0.80
2008,06,11,08,12,0.90
2008,06,11,08,13,3.20
2008,06,11,08,14,0.70
2008,06,11,08,15,0.50
2008,06,11,08,16,2.50
2008,06,11,08,17,0.30
2008,06,11,08,18,2.30
2008,06,11,08,19,1.60
2008,06,11,08,20,0.40
2008,06,11,08,21,3.60
2008,06,11,08,22,2.20
2008,06,11,08,23,5.50
2008,06,11,08,24,3.60
2008,06,11,08,25,3.60
2008,06,11,08,26,3.40
2008,06,11,08,27,2.50
2008,06,11,08,28,1.20
2008,06,11,08,29,1.30
2008,06,11,08,30,0.70
2008,06,11,08,31,1.80
2008,06,11,08,32,4.20
2008,06,11,08,33,4.10
2008,06,11,08,34,0.20
2008,06,11,08,35,1.20
2008,06,11,08,36,5.90
2008,06,11,08,37,4.90
2008,06,11,08,38,0.90
2008,06,11,08,39,2.80
2008,06,11,08,40,4.90
2008,06,11,08,41,3.20
2008,06,11,08,42,0.30
2008,06,11,08,43,1.80
2008,06,11,08,44,5.30
2008,06,11,08,45,2.50
2008,06,11,08,46,1.10
2008,06,11,08,47,2.70
2008,06,11,08,48,1.20
2008,06,11,08,49,0.30
2008,06,11,08,50,0.90
2008,06,11,08,51,0.40
2008,06,11,08,52,1.50
2008,06,11,08,53,1.60
2008,06,11,08,54,0.20
2008,06,11,08,55,1.60
2008,06,11,08,56,2.40
2008,06,11,08,57,2.90
2008,06,11,08,58,1.50
2008,06,11,08,59,1.70
2008,06,11,09,00,3.00
2008,06,11,09,01,3.70
2008,06,11,09,02,4.20
2008,06,11,09,03,3.00
2008,06,11,09,04,4.00
2008,06,11,09,05,0.90
2008,06,11,09,06,0.10
2008,06,11,09,07,0.90
2008,06,11,09,08,1.90
2008,06,11,09,09,3.50
2008,06,11,09,10,2.10
2008,06,11,09,11,1.90
2008,06,11,09,12,1.90
2008,06,11,09,13,0.30
2008,06,11,09,14,0.30
2008,06,11,09,15,1.00
2008,06,11,09,16,0.80
2008,06,11,09,17,0.00
2008,06,11,09,18,1.20
2008,06,11,09,19,0.60
2008,06,11,09,20,0.00
2008,06,11,09,21,1.60
2008,06,11,09,22,1.80
2008,06,11,09,23,3.00
2008,06,11,09,24,5.10
2008,06,11,09,25,5.60
2008,06,11,09,26,3.60
2008,06,11,09,27,2.10
2008,06,11,09,28,1.40
2008,06,11,09,29,1.00
2008,06,11,09,30,3.00
2008,06,11,09,31,4.70
2008,06,11,09,32,3.20
2008,06,11,09,33,2.30
2008,06,11,09,34,0.70
2008,06,11,09,35,0.00
2008,06,11,09,36,0.10
2008,06,11,09,37,0.10
2008,06,11,09,38,0.00
2008,06,11,09,39,0.60
2008,06,11,09,40,1.30
2008,06,11,09,41,2.10
2008,06,11,09,42,1.40
2008,06,11,09,43,1.20
2008,06,11,09,44,0.10
2008,06,11,09,45,0.00
2008,06,11,09,46,0.00
2008,06,11,09,47,0.50
2008,06,11,09,48,1.10
2008,06,11,09,49,0.90
2008,06,11,09,50,0.10
2008,06,11,09,51,0.00
2008,06,11,09,52,0.00
2008,06,11,09,53,0.00
2008,06,11,09,54,0.00
2008,06,11,09,55,0.00
2008,06,11,09,56,0.40
2008,06,11,09,57,0.00
2008,06,11,09,58,0.00
2008,06,11,09,59,1.40
2008,06,11,10,00,2.10
2008,06,11,10,01,0.40
2008,06,11,10,02,1.30
2008,06,11,10,03,3.20
2008,06,11,10,04,2.60
2008,06,11,10,05,1.00
2008,06,11,10,06,0.00
2008,06,11,10,07,0.00
2008,06,11,10,08,0.00
2008,06,11,10,09,0.00
2008,06,11,10,10,0.90
2008,06,11,10,11,1.70
2008,06,11,10,12,0.20
2008,06,11,10,13,0.80
2008,06,11,10,14,3.00
2008,06,11,10,15,3.70
2008,06,11,10,16,3.60
2008,06,11,10,17,3.20
2008,06,11,10,18,3.40
2008,06,11,10,19,2.00
2008,06,11,10,20,3.00
2008,06,11,10,21,3.20
2008,06,11,10,22,4.30
2008,06,11,10,23,3.00
2008,06,11,10,24,3.10
2008,06,11,10,25,2.70
2008,06,11,10,26,4.40
2008,06,11,10,27,4.40
2008,06,11,10,28,1.70
2008,06,11,10,29,4.70
2008,06,11,10,30,4.70
2008,06,11,10,31,4.00
2008,06,11,10,32,3.20
2008,06,11,10,33,2.80
2008,06,11,10,34,2.70
2008,06,11,10,35,4.70
2008,06,11,10,36,3.00
2008,06,11,10,37,5.20
2008,06,11,10,38,5.10
2008,06,11,10,39,3.90
2008,06,11,10,40,2.50
2008,06,11,10,41,7.10
2008,06,11,10,42,6.20
2008,06,11,10,43,6.10
2008,06,11,10,44,3.20
2008,06,11,10,45,3.60
2008,06,11,10,46,1.30
2008,06,11,10,47,0.10
2008,06,11,10,48,0.00
2008,06,11,10,49,0.10
2008,06,11,10,50,0.10
2008,06,11,10,51,2.70
2008,06,11,10,52,1.20
2008,06,11,10,53,2.00
2008,06,11,10,54,4.80
2008,06,11,10,55,3.00
2008,06,11,10,56,5.30
2008,06,11,10,57,4.80
2008,06,11,10,58,1.60
2008,06,11,10,59,1.40
2008,06,11,11,00,0.80
2008,06,11,11,01,0.00
2008,06,11,11,02,1.00
2008,06,11,11,03,2.00
2008,06,11,11,04,3.00
2008,06,11,11,05,1.30
2008,06,11,11,06,3.20
2008,06,11,11,07,2.70
2008,06,11,11,08,2.10
2008,06,11,11,09,0.30
2008,06,11,11,10,1.60
2008,06,11,11,11,0.90
2008,06,11,11,12,3.40
2008,06,11,11,13,4.00
2008,06,11,11,14,4.20
2008,06,11,11,15,2.50
2008,06,11,11,16,1.40
2008,06,11,11,17,0.00
2008,06,11,11,18,0.00
2008,06,11,11,19,0.00
2008,06,11,11,20,0.10
2008,06,11,11,21,0.00
2008,06,11,11,22,0.00
2008,06,11,11,23,0.00
2008,06,11,11,24,0.00
2008,06,11,11,25,0.00
2008,06,11,11,26,0.00
2008,06,11,11,27,0.30
2008,06,11,11,28,0.00
2008,06,11,11,29,0.00
2008,06,11,11,30,0.20
2008,06,11,11,31,1.30
2008,06,11,11,32,0.60
2008,06,11,11,33,0.20
2008,06,11,11,34,0.30
2008,06,11,11,35,0.00
2008,06,11,11,36,0.00
2008,06,11,11,37,0.30
2008,06,11,11,38,0.00
2008,06,11,11,39,0.00
2008,06,11,11,40,0.00
2008,06,11,11,41,0.10
2008,06,11,11,42,0.00
2008,06,11,11,43,0.00
2008,06,11,11,44,0.30
2008,06,11,11,45,0.00
2008,06,11,11,46,0.00
2008,06,11,11,47,0.00
2008,06,11,11,48,0.00
2008,06,11,11,49,0.00
2008,06,11,11,50,0.10
2008,06,11,11,51,0.00
2008,06,11,11,52,0.00
2008,06,11,11,53,0.00
2008,06,11,11,54,0.10
2008,06,11,11,55,0.50
2008,06,11,11,56,0.10
2008,06,11,11,57,0.00
2008,06,11,11,58,0.00
2008,06,11,11,59,0.00
2008,06,11,12,00,0.00
2008,06,11,12,01,0.00
2008,06,11,12,02,0.40
2008,06,11,12,03,0.70
2008,06,11,12,04,0.90
2008,06,11,12,05,1.00
2008,06,11,12,06,0.00
2008,06,11,12,07,0.00
2008,06,11,12,08,0.60
2008,06,11,12,09,0.30
2008,06,11,12,10,0.10
2008,06,11,12,11,0.00
2008,06,11,12,12,0.00
2008,06,11,12,13,0.00
2008,06,11,12,14,0.00
2008,06,11,12,15,0.00
2008,06,11,12,16,0.00
2008,06,11,12,17,0.00
2008,06,11,12,18,0.40
2008,06,11,12,19,2.40
2008,06,11,12,20,1.90
2008,06,11,12,21,0.20
2008,06,11,12,22,0.00
2008,06,11,12,23,0.00
2008,06,11,12,24,0.00
2008,06,11,12,25,0.00
2008,06,11,12,26,0.00
2008,06,11,12,27,0.00
2008,06,11,12,28,0.00
2008,06,11,12,29,0.20
2008,06,11,12,30,0.00
2008,06,11,12,31,0.00
2008,06,11,12,32,0.00
2008,06,11,12,33,0.10
2008,06,11,12,34,1.50
2008,06,11,12,35,0.70
2008,06,11,12,36,0.30
2008,06,11,12,37,0.00
2008,06,11,12,38,0.10
2008,06,11,12,39,0.00
2008,06,11,12,40,0.00
2008,06,11,12,41,0.50
2008,06,11,12,42,4.70
2008,06,11,12,43,0.20
2008,06,11,12,44,0.10
2008,06,11,12,45,0.00
2008,06,11,12,46,0.00
2008,06,11,12,47,0.00
2008,06,11,12,48,0.20
2008,06,11,12,49,2.30
2008,06,11,12,50,0.00
2008,06,11,12,51,0.50
2008,06,11,12,52,0.10
2008,06,11,12,53,0.10
2008,06,11,12,54,0.00
2008,06,11,12,55,0.00
2008,06,11,12,56,0.00
2008,06,11,12,57,0.00
2008,06,11,12,58,0.00
2008,06,11,12,59,0.00
2008,06,11,13,00,0.50
2008,06,11,13,01,5.00
2008,06,11,13,02,5.30
2008,06,11,13,03,5.60
2008,06,11,13,04,5.50
2008,06,11,13,05,6.00
2008,06,11,13,06,7.50
2008,06,11,13,07,5.40
2008,06,11,13,08,4.90
2008,06,11,13,09,4.00
2008,06,11,13,10,3.70
2008,06,11,13,11,4.20
2008,06,11,13,12,5.30
2008,06,11,13,13,7.90
2008,06,11,13,14,7.60
2008,06,11,13,15,8.50
2008,06,11,13,16,7.20
2008,06,11,13,17,4.40
2008,06,11,13,18,9.90
2008,06,11,13,19,5.60
2008,06,11,13,20,5.20
2008,06,11,13,21,9.70
2008,06,11,13,22,3.30
2008,06,11,13,23,5.50
2008,06,11,13,24,5.30
2008,06,11,13,25,8.30
2008,06,11,13,26,7.40
2008,06,11,13,27,4.10
2008,06,11,13,28,6.30
2008,06,11,13,29,4.20
2008,06,11,13,30,4.70
2008,06,11,13,31,6.90
2008,06,11,13,32,5.80
2008,06,11,13,33,6.40
2008,06,11,13,34,8.50
2008,06,11,13,35,9.70
2008,06,11,13,36,5.40
2008,06,11,13,37,6.40
2008,06,11,13,38,6.00
2008,06,11,13,39,4.90
2008,06,11,13,40,6.60
2008,06,11,13,41,5.10
2008,06,11,13,42,7.40
2008,06,11,13,43,4.20
2008,06,11,13,44,2.40
2008,06,11,13,45,3.70
2008,06,11,13,46,6.50
2008,06,11,13,47,6.50
2008,06,11,13,48,8.10
2008,06,11,13,49,3.20
2008,06,11,13,50,3.60
2008,06,11,13,51,1.10
2008,06,11,13,52,4.70
2008,06,11,13,53,1.70
2008,06,11,13,54,2.50
2008,06,11,13,55,3.60
2008,06,11,13,56,2.00
2008,06,11,13,57,0.00
2008,06,11,13,58,2.50
2008,06,11,13,59,0.10
2008,06,11,14,00,0.30
2008,06,11,14,01,0.80
2008,06,11,14,02,0.30
2008,06,11,14,03,2.00
2008,06,11,14,04,2.30
2008,06,11,14,05,4.70
2008,06,11,14,06,2.10
2008,06,11,14,07,0.40
2008,06,11,14,08,0.90
2008,06,11,14,09,3.50
2008,06,11,14,10,1.00
2008,06,11,14,11,0.30
2008,06,11,14,12,0.20
2008,06,11,14,13,0.40
2008,06,11,14,14,1.40
2008,06,11,14,15,4.00
2008,06,11,14,16,3.80
2008,06,11,14,17,1.90
2008,06,11,14,18,0.10
2008,06,11,14,19,0.00
2008,06,11,14,20,0.00
2008,06,11,14,21,0.30
2008,06,11,14,22,0.50
2008,06,11,14,23,1.50
2008,06,11,14,24,0.30
2008,06,11,14,25,0.00
2008,06,11,14,26,1.50
2008,06,11,14,27,1.40
2008,06,11,14,28,0.30
2008,06,11,14,29,0.00
2008,06,11,14,30,0.20
2008,06,11,14,31,0.10
2008,06,11,14,32,0.90
2008,06,11,14,33,0.50
2008,06,11,14,34,0.00
2008,06,11,14,35,0.00
2008,06,11,14,36,0.10
2008,06,11,14,37,0.30
2008,06,11,14,38,0.00
2008,06,11,14,39,0.00
2008,06,11,14,40,1.00
2008,06,11,14,41,2.50
2008,06,11,14,42,0.60
2008,06,11,14,43,0.00
2008,06,11,14,44,0.00
2008,06,11,14,45,0.00
2008,06,11,14,46,0.00
2008,06,11,14,47,0.00
2008,06,11,14,48,0.00
2008,06,11,14,49,0.00
2008,06,11,14,50,0.20
2008,06,11,14,51,0.10
2008,06,11,14,52,0.00
2008,06,11,14,53,0.50
2008,06,11,14,54,0.60
2008,06,11,14,55,0.00
2008,06,11,14,56,0.10
2008,06,11,14,57,0.00
2008,06,11,14,58,0.00
2008,06,11,14,59,0.00
2008,06,11,15,00,0.00
2008,06,11,15,01,0.00
2008,06,11,15,02,0.00
2008,06,11,15,03,0.00
2008,06,11,15,04,0.20
2008,06,11,15,05,0.00
2008,06,11,15,06,0.00
2008,06,11,15,07,0.00
2008,06,11,15,08,0.00
2008,06,11,15,09,0.00
2008,06,11,15,10,0.10
2008,06,11,15,11,0.30
2008,06,11,15,12,0.00
2008,06,11,15,13,0.40
2008,06,11,15,14,0.90
2008,06,11,15,15,0.50
2008,06,11,15,16,0.40
2008,06,11,15,17,0.00
2008,06,11,15,18,0.00
2008,06,11,15,19,0.00
2008,06,11,15,20,0.00
2008,06,11,15,21,0.30
2008,06,11,15,22,0.00
2008,06,11,15,23,0.00
2008,06,11,15,24,0.90
2008,06,11,15,25,0.20
2008,06,11,15,26,0.00
2008,06,11,15,27,0.30
2008,06,11,15,28,2.40
2008,06,11,15,29,2.60
2008,06,11,15,30,3.00
2008,06,11,15,31,1.00
2008,06,11,15,32,0.00
2008,06,11,15,33,0.00
2008,06,11,15,34,0.00
2008,06,11,15,35,0.00
2008,06,11,15,36,0.30
2008,06,11,15,37,1.10
2008,06,11,15,38,0.90
2008,06,11,15,39,0.00
2008,06,11,15,40,0.00
2008,06,11,15,41,0.00
2008,06,11,15,42,0.00
2008,06,11,15,43,0.40
2008,06,11,15,44,2.30
2008,06,11,15,45,2.30
2008,06,11,15,46,0.80
2008,06,11,15,47,0.70
2008,06,11,15,48,0.00
2008,06,11,15,49,0.00
2008,06,11,15,50,0.00
2008,06,11,15,51,0.10
2008,06,11,15,52,0.00
2008,06,11,15,53,0.00
2008,06,11,15,54,0.00
2008,06,11,15,55,0.00
2008,06,11,15,56,0.20
2008,06,11,15,57,0.10
2008,06,11,15,58,0.20
2008,06,11,15,59,2.90
2008,06,11,16,00,0.20
2008,06,11,16,01,1.80
2008,06,11,16,02,0.30
2008,06,11,16,03,0.30
2008,06,11,16,04,0.00
2008,06,11,16,05,0.00
2008,06,11,16,06,0.10
2008,06,11,16,07,0.80
2008,06,11,16,08,0.80
2008,06,11,16,09,0.20
2008,06,11,16,10,3.90
2008,06,11,16,11,2.00
2008,06,11,16,12,2.40
2008,06,11,16,13,4.50
2008,06,11,16,14,3.20
2008,06,11,16,15,0.50
2008,06,11,16,16,2.50
2008,06,11,16,17,7.40
2008,06,11,16,18,3.70
2008,06,11,16,19,6.60
2008,06,11,16,20,5.20
2008,06,11,16,21,4.80
2008,06,11,16,22,0.50
2008,06,11,16,23,0.00
2008,06,11,16,24,0.00
2008,06,11,16,25,0.30
2008,06,11,16,26,0.20
2008,06,11,16,27,0.00
2008,06,11,16,28,0.10
2008,06,11,16,29,0.10
2008,06,11,16,30,0.30
2008,06,11,16,31,0.90
2008,06,11,16,32,2.10
2008,06,11,16,33,1.50
2008,06,11,16,34,0.30
2008,06,11,16,35,0.20
2008,06,11,16,36,0.20
2008,06,11,16,37,0.30
2008,06,11,16,38,0.10
2008,06,11,16,39,4.20
2008,06,11,16,40,8.40
2008,06,11,16,41,4.90
2008,06,11,16,42,3.00
2008,06,11,16,43,3.30
2008,06,11,16,44,2.00
2008,06,11,16,45,0.50
2008,06,11,16,46,0.20
2008,06,11,16,47,4.10
2008,06,11,16,48,3.90
2008,06,11,16,49,4.60
2008,06,11,16,50,1.90
2008,06,11,16,51,2.90
2008,06,11,16,52,4.20
2008,06,11,16,53,4.70
2008,06,11,16,54,1.30
2008,06,11,16,55,0.10
2008,06,11,16,56,0.10
2008,06,11,16,57,0.10
2008,06,11,16,58,0.80
2008,06,11,16,59,0.20
2008,06,11,17,00,1.80
2008,06,11,17,01,0.00
2008,06,11,17,02,0.20
2008,06,11,17,03,0.30
2008,06,11,17,04,0.30
2008,06,11,17,05,1.30
2008,06,11,17,06,2.00
2008,06,11,17,07,1.00
2008,06,11,17,08,0.80
2008,06,11,17,09,0.00
2008,06,11,17,10,0.00
2008,06,11,17,11,0.00
2008,06,11,17,12,0.00
2008,06,11,17,13,0.00
2008,06,11,17,14,0.00
2008,06,11,17,15,0.40
2008,06,11,17,16,0.40
2008,06,11,17,17,2.00
2008,06,11,17,18,1.30
2008,06,11,17,19,0.90
2008,06,11,17,20,0.00
2008,06,11,17,21,0.00
2008,06,11,17,22,0.00
2008,06,11,17,23,0.00
2008,06,11,17,24,0.80
2008,06,11,17,25,0.50
2008,06,11,17,26,0.00
2008,06,11,17,27,0.20
2008,06,11,17,28,0.00
2008,06,11,17,29,0.00
2008,06,11,17,30,0.00
2008,06,11,17,31,0.00
2008,06,11,17,32,0.30
2008,06,11,17,33,0.00
2008,06,11,17,34,0.00
2008,06,11,17,35,0.00
2008,06,11,17,36,0.00
2008,06,11,17,37,0.00
2008,06,11,17,38,0.00
2008,06,11,17,39,0.00
2008,06,11,17,40,0.00
2008,06,11,17,41,0.00
2008,06,11,17,42,0.00
2008,06,11,17,43,0.00
2008,06,11,17,44,0.00
2008,06,11,17,45,1.40
2008,06,11,17,46,4.90
2008,06,11,17,47,1.70
2008,06,11,17,48,0.10
2008,06,11,17,49,2.30
2008,06,11,17,50,5.70
2008,06,11,17,51,7.80
2008,06,11,17,52,3.10
2008,06,11,17,53,7.90
2008,06,11,17,54,6.80
2008,06,11,17,55,5.10
2008,06,11,17,56,4.00
2008,06,11,17,57,4.50
2008,06,11,17,58,1.30
2008,06,11,17,59,1.50
2008,06,11,18,00,3.10
2008,06,11,18,01,4.50
2008,06,11,18,02,6.30
2008,06,11,18,03,4.30
2008,06,11,18,04,7.20
2008,06,11,18,05,4.10
2008,06,11,18,06,2.70
2008,06,11,18,07,3.60
2008,06,11,18,08,4.30
2008,06,11,18,09,1.40
2008,06,11,18,10,2.80
2008,06,11,18,11,5.00
2008,06,11,18,12,2.90
2008,06,11,18,13,1.40
2008,06,11,18,14,3.00
2008,06,11,18,15,4.70
2008,06,11,18,16,7.60
2008,06,11,18,17,7.60
2008,06,11,18,18,4.80
2008,06,11,18,19,7.50
2008,06,11,18,20,7.60
2008,06,11,18,21,4.40
2008,06,11,18,22,3.70
2008,06,11,18,23,7.60
2008,06,11,18,24,4.30
2008,06,11,18,25,9.70
2008,06,11,18,26,11.40
2008,06,11,18,27,9.10
2008,06,11,18,28,9.00
2008,06,11,18,29,6.00
2008,06,11,18,30,7.80
2008,06,11,18,31,3.20
2008,06,11,18,32,3.90
2008,06,11,18,33,2.70
2008,06,11,18,34,8.90
2008,06,11,18,35,4.60
2008,06,11,18,36,10.20
2008,06,11,18,37,9.20
2008,06,11,18,38,8.80
2008,06,11,18,39,8.10
2008,06,11,18,40,4.30
2008,06,11,18,41,3.80
2008,06,11,18,42,6.00
2008,06,11,18,43,11.40
2008,06,11,18,44,11.50
2008,06,11,18,45,11.50
2008,06,11,18,46,13.20
2008,06,11,18,47,6.40
2008,06,11,18,48,9.60
2008,06,11,18,49,8.60
2008,06,11,18,50,9.10
2008,06,11,18,51,5.30
2008,06,11,18,52,4.40
2008,06,11,18,53,4.80
2008,06,11,18,54,9.60
2008,06,11,18,55,8.70